User: anonymous   Login
Location: Nelson
(41.2830°S, 173.2830°E)
Time: 15:34:08
(UTC+12:00)
Language:

Cosmos 1943 Rocket - Orbit

View from above orbital plane
View from above orbital plane
View from above satellite
View from above satellite

Ground track
Ground track

The orbit data is extracted from the following two-line orbital elements,

1 19120U 88039B   21207.61545841  .00000084  00000-0  62893-4 0  9991
2 19120  71.0152  34.5032 0020438  43.2049 317.0675 14.19223551718993
Epoch (UTC): 26 July 2021 14:46:15
Eccentricity: 0.0020438
inclination: 71.0152°
perigee height: 813 km
apogee height: 843 km
right ascension of ascending node: 34.5032°
argument of perigee: 43.2049°
revolutions per day: 14.19223551
mean anomaly at epoch: 317.0675°
orbit number at epoch: 71899

The dashed part of the orbit path shows where the satellite is in the earth's shadow,  

DLR